Time,TemperatureF,DewpointF,PressureIn,WindDirection,WindDirectionDegrees,WindSpeedMPH,WindSpeedGustMPH,Humidity,HourlyPrecipIn,Conditions,Clouds,dailyrainin,SoftwareType,DateUTC
2013-03-08 00:01:00,21.0,10.0,30.35,East,93,0.0,0.0,62,0.00,,,0.00,,2013-03-08 06:01:00,
2013-03-08 00:11:00,21.0,10.0,30.35,East,93,0.0,0.0,62,0.00,,,0.00,,2013-03-08 06:11:00,
2013-03-08 00:21:00,20.0,10.0,30.34,East,93,0.0,0.0,64,0.00,,,0.00,,2013-03-08 06:21:00,
2013-03-08 00:32:00,20.0,10.0,30.34,East,93,0.0,0.0,64,0.00,,,0.00,,2013-03-08 06:32:00,
2013-03-08 00:42:00,20.0,10.0,30.34,East,93,0.0,0.0,64,0.00,,,0.00,,2013-03-08 06:42:00,
2013-03-08 00:52:00,21.0,11.0,30.33,East,93,0.0,0.0,65,0.00,,,0.00,,2013-03-08 06:52:00,
2013-03-08 01:01:00,21.0,11.0,30.33,East,93,0.0,0.0,65,0.00,,,0.00,,2013-03-08 07:01:00,
2013-03-08 01:11:00,21.0,11.0,30.33,East,93,0.0,0.0,65,0.00,,,0.00,,2013-03-08 07:11:00,
2013-03-08 01:22:00,22.0,12.0,30.34,South,173,0.0,9.0,66,0.00,,,0.00,,2013-03-08 07:22:00,
2013-03-08 01:31:00,22.0,12.0,30.34,South,173,0.0,9.0,66,0.00,,,0.00,,2013-03-08 07:31:00,
2013-03-08 01:42:00,22.0,12.0,30.34,South,173,0.0,9.0,66,0.00,,,0.00,,2013-03-08 07:42:00,
2013-03-08 01:52:00,24.0,14.0,30.35,SSE,156,3.0,7.0,64,0.00,,,0.00,,2013-03-08 07:52:00,
2013-03-08 02:01:00,24.0,14.0,30.35,SSE,156,3.0,7.0,64,0.00,,,0.00,,2013-03-08 08:01:00,
2013-03-08 02:11:00,24.0,14.0,30.35,SSE,156,3.0,7.0,64,0.00,,,0.00,,2013-03-08 08:11:00,
2013-03-08 02:21:00,23.0,13.0,30.35,SSE,155,0.0,6.0,64,0.00,,,0.00,,2013-03-08 08:21:00,
2013-03-08 02:31:00,23.0,13.0,30.35,SSE,155,0.0,6.0,64,0.00,,,0.00,,2013-03-08 08:31:00,
2013-03-08 02:42:00,23.0,13.0,30.35,SSE,155,0.0,6.0,64,0.00,,,0.00,,2013-03-08 08:42:00,
2013-03-08 02:52:00,22.0,12.0,30.35,SSE,151,0.0,2.0,66,0.00,,,0.00,,2013-03-08 08:52:00,
2013-03-08 03:03:00,22.0,12.0,30.35,SSE,151,0.0,2.0,66,0.00,,,0.00,,2013-03-08 09:03:00,
2013-03-08 03:11:00,22.0,12.0,30.35,SSE,151,0.0,2.0,66,0.00,,,0.00,,2013-03-08 09:11:00,
2013-03-08 03:21:00,22.0,13.0,30.34,SE,142,0.0,1.0,68,0.00,,,0.00,,2013-03-08 09:21:00,
2013-03-08 03:32:00,22.0,13.0,30.34,SE,142,0.0,1.0,68,0.00,,,0.00,,2013-03-08 09:32:00,
2013-03-08 03:42:00,22.0,13.0,30.34,SE,142,0.0,1.0,68,0.00,,,0.00,,2013-03-08 09:42:00,
2013-03-08 03:52:00,22.0,13.0,30.33,SSE,151,0.0,4.0,69,0.00,,,0.00,,2013-03-08 09:52:00,
2013-03-08 04:01:00,22.0,13.0,30.33,SSE,151,0.0,4.0,69,0.00,,,0.00,,2013-03-08 10:01:00,
2013-03-08 04:11:00,22.0,13.0,30.33,SSE,151,0.0,4.0,69,0.00,,,0.00,,2013-03-08 10:11:00,
2013-03-08 04:21:00,21.0,13.0,30.33,SE,138,0.0,1.0,71,0.00,,,0.00,,2013-03-08 10:21:00,
2013-03-08 04:31:00,21.0,13.0,30.33,SE,138,0.0,1.0,71,0.00,,,0.00,,2013-03-08 10:31:00,
2013-03-08 04:42:00,21.0,13.0,30.33,SE,138,0.0,1.0,71,0.00,,,0.00,,2013-03-08 10:42:00,
2013-03-08 04:52:00,21.0,13.0,30.33,SE,140,0.0,1.0,72,0.00,,,0.00,,2013-03-08 10:52:00,
2013-03-08 05:01:00,21.0,13.0,30.33,SE,140,0.0,1.0,72,0.00,,,0.00,,2013-03-08 11:01:00,
2013-03-08 05:11:00,21.0,13.0,30.33,SE,140,0.0,1.0,72,0.00,,,0.00,,2013-03-08 11:11:00,
2013-03-08 05:21:00,21.0,14.0,30.33,SE,139,0.0,0.0,73,0.00,,,0.00,,2013-03-08 11:21:00,
2013-03-08 05:32:00,21.0,14.0,30.33,SE,139,0.0,0.0,73,0.00,,,0.00,,2013-03-08 11:32:00,
2013-03-08 05:42:00,21.0,14.0,30.33,SE,139,0.0,0.0,73,0.00,,,0.00,,2013-03-08 11:42:00,
2013-03-08 05:52:00,21.0,14.0,30.34,SE,139,0.0,1.0,73,0.00,,,0.00,,2013-03-08 11:52:00,
2013-03-08 06:01:00,21.0,14.0,30.34,SE,139,0.0,1.0,73,0.00,,,0.00,,2013-03-08 12:01:00,
2013-03-08 06:11:00,21.0,14.0,30.34,SE,139,0.0,1.0,73,0.00,,,0.00,,2013-03-08 12:11:00,
2013-03-08 06:22:00,20.0,13.0,30.33,SE,139,0.0,1.0,74,0.00,,,0.00,,2013-03-08 12:22:00,
2013-03-08 06:32:00,20.0,13.0,30.33,SE,139,0.0,1.0,74,0.00,,,0.00,,2013-03-08 12:32:00,
2013-03-08 06:43:00,20.0,13.0,30.33,SE,139,0.0,1.0,74,0.00,,,0.00,,2013-03-08 12:43:00,
2013-03-08 06:53:00,20.0,13.0,30.34,SE,139,0.0,1.0,74,0.00,,,0.00,,2013-03-08 12:53:00,
2013-03-08 07:01:00,20.0,13.0,30.34,SE,139,0.0,1.0,74,0.00,,,0.00,,2013-03-08 13:01:00,
2013-03-08 07:11:00,20.0,13.0,30.34,SE,139,0.0,1.0,74,0.00,,,0.00,,2013-03-08 13:11:00,
2013-03-08 07:21:00,20.0,13.0,30.34,SE,140,0.0,0.0,75,0.00,,,0.00,,2013-03-08 13:21:00,
2013-03-08 07:32:00,20.0,13.0,30.34,SE,140,0.0,0.0,75,0.00,,,0.00,,2013-03-08 13:32:00,
2013-03-08 07:42:00,20.0,13.0,30.34,SE,140,0.0,0.0,75,0.00,,,0.00,,2013-03-08 13:42:00,
2013-03-08 07:52:00,21.0,14.0,30.33,SE,140,0.0,1.0,75,0.00,,,0.00,,2013-03-08 13:52:00,
2013-03-08 08:02:00,21.0,14.0,30.33,SE,140,0.0,1.0,75,0.00,,,0.00,,2013-03-08 14:02:00,
2013-03-08 08:11:00,21.0,14.0,30.33,SE,140,0.0,1.0,75,0.00,,,0.00,,2013-03-08 14:11:00,
2013-03-08 08:22:00,22.0,15.0,30.32,SE,134,0.0,4.0,74,0.00,,,0.00,,2013-03-08 14:22:00,
2013-03-08 08:32:00,22.0,15.0,30.32,SE,134,0.0,4.0,74,0.00,,,0.00,,2013-03-08 14:32:00,
2013-03-08 08:42:00,22.0,15.0,30.32,SE,134,0.0,4.0,74,0.00,,,0.00,,2013-03-08 14:42:00,
2013-03-08 08:52:00,23.0,16.0,30.32,SSE,158,3.0,7.0,73,0.00,,,0.00,,2013-03-08 14:52:00,
2013-03-08 09:02:00,23.0,16.0,30.32,SSE,158,3.0,7.0,73,0.00,,,0.00,,2013-03-08 15:02:00,
2013-03-08 09:11:00,25.0,17.0,30.32,SSE,159,4.0,7.0,71,0.00,,,0.00,,2013-03-08 15:11:00,
2013-03-08 09:22:00,25.0,17.0,30.32,SSE,159,4.0,7.0,71,0.00,,,0.00,,2013-03-08 15:22:00,
2013-03-08 09:32:00,25.0,17.0,30.32,SSE,159,4.0,7.0,71,0.00,,,0.00,,2013-03-08 15:32:00,
2013-03-08 09:43:00,25.0,17.0,30.32,SSE,159,4.0,7.0,71,0.00,,,0.00,,2013-03-08 15:43:00,
2013-03-08 09:53:00,26.0,18.0,30.33,SSE,148,1.0,5.0,70,0.00,,,0.00,,2013-03-08 15:53:00,
2013-03-08 10:01:00,26.0,18.0,30.33,SSE,148,1.0,5.0,70,0.00,,,0.00,,2013-03-08 16:01:00,
2013-03-08 10:11:00,26.0,18.0,30.33,SSE,148,1.0,5.0,70,0.00,,,0.00,,2013-03-08 16:11:00,
2013-03-08 10:22:00,28.0,19.0,30.33,SSE,151,0.0,2.0,68,0.00,,,0.00,,2013-03-08 16:22:00,
2013-03-08 10:32:00,28.0,19.0,30.33,SSE,151,0.0,2.0,68,0.00,,,0.00,,2013-03-08 16:32:00,
2013-03-08 10:42:00,28.0,19.0,30.33,SSE,151,0.0,2.0,68,0.00,,,0.00,,2013-03-08 16:42:00,
2013-03-08 10:52:00,29.0,19.0,30.32,South,181,2.0,8.0,65,0.00,,,0.00,,2013-03-08 16:52:00,
2013-03-08 11:02:00,29.0,19.0,30.32,South,181,2.0,8.0,65,0.00,,,0.00,,2013-03-08 17:02:00,
2013-03-08 11:11:00,29.0,19.0,30.32,South,181,2.0,8.0,65,0.00,,,0.00,,2013-03-08 17:11:00,
2013-03-08 11:21:00,30.0,19.0,30.32,SE,132,0.0,7.0,64,0.00,,,0.00,,2013-03-08 17:21:00,
2013-03-08 11:32:00,30.0,19.0,30.32,SE,132,0.0,7.0,64,0.00,,,0.00,,2013-03-08 17:32:00,
2013-03-08 11:42:00,30.0,19.0,30.32,SE,132,0.0,7.0,64,0.00,,,0.00,,2013-03-08 17:42:00,
2013-03-08 11:52:00,31.0,20.0,30.32,SE,126,2.0,7.0,62,0.00,,,0.00,,2013-03-08 17:52:00,
2013-03-08 12:02:00,31.0,20.0,30.32,SE,126,2.0,7.0,62,0.00,,,0.00,,2013-03-08 18:02:00,
2013-03-08 12:11:00,31.0,20.0,30.32,SE,126,2.0,7.0,62,0.00,,,0.00,,2013-03-08 18:11:00,
2013-03-08 12:21:00,32.0,20.0,30.31,ESE,121,3.0,7.0,60,0.00,,,0.00,,2013-03-08 18:21:00,
2013-03-08 12:32:00,32.0,20.0,30.31,ESE,121,3.0,7.0,60,0.00,,,0.00,,2013-03-08 18:32:00,
2013-03-08 12:42:00,32.0,20.0,30.31,ESE,121,3.0,7.0,60,0.00,,,0.00,,2013-03-08 18:42:00,
2013-03-08 12:52:00,34.0,21.0,30.30,SE,144,2.0,5.0,59,0.00,,,0.00,,2013-03-08 18:52:00,
2013-03-08 13:01:00,34.0,21.0,30.30,SE,144,2.0,5.0,59,0.00,,,0.00,,2013-03-08 19:01:00,
2013-03-08 13:11:00,34.0,21.0,30.30,SE,144,2.0,5.0,59,0.00,,,0.00,,2013-03-08 19:11:00,
2013-03-08 13:21:00,34.0,21.0,30.29,SE,144,3.0,6.0,58,0.00,,,0.00,,2013-03-08 19:21:00,
2013-03-08 13:32:00,34.0,21.0,30.29,SE,144,3.0,6.0,58,0.00,,,0.00,,2013-03-08 19:32:00,
2013-03-08 13:42:00,34.0,21.0,30.29,SE,144,3.0,6.0,58,0.00,,,0.00,,2013-03-08 19:42:00,
2013-03-08 13:52:00,34.0,21.0,30.27,ESE,114,1.0,8.0,59,0.00,,,0.00,,2013-03-08 19:52:00,
2013-03-08 14:01:00,34.0,21.0,30.27,ESE,114,1.0,8.0,59,0.00,,,0.00,,2013-03-08 20:01:00,
2013-03-08 14:11:00,34.0,21.0,30.27,ESE,114,1.0,8.0,59,0.00,,,0.00,,2013-03-08 20:11:00,
2013-03-08 14:21:00,35.0,21.0,30.27,SE,139,2.0,7.0,57,0.00,,,0.00,,2013-03-08 20:21:00,
2013-03-08 14:32:00,35.0,21.0,30.27,SE,139,2.0,7.0,57,0.00,,,0.00,,2013-03-08 20:32:00,
2013-03-08 14:42:00,35.0,21.0,30.27,SE,139,2.0,7.0,57,0.00,,,0.00,,2013-03-08 20:42:00,
2013-03-08 14:53:00,36.0,22.0,30.26,SSE,152,3.0,5.0,56,0.00,,,0.00,,2013-03-08 20:53:00,
2013-03-08 15:02:00,36.0,22.0,30.26,SSE,152,3.0,5.0,56,0.00,,,0.00,,2013-03-08 21:02:00,
2013-03-08 15:11:00,36.0,22.0,30.26,SSE,152,3.0,5.0,56,0.00,,,0.00,,2013-03-08 21:11:00,
2013-03-08 15:21:00,37.0,22.0,30.26,SSE,161,0.0,6.0,55,0.00,,,0.00,,2013-03-08 21:21:00,
2013-03-08 15:32:00,37.0,22.0,30.26,SSE,161,0.0,6.0,55,0.00,,,0.00,,2013-03-08 21:32:00,
2013-03-08 15:42:00,37.0,22.0,30.26,SSE,161,0.0,6.0,55,0.00,,,0.00,,2013-03-08 21:42:00,
2013-03-08 15:52:00,37.0,22.0,30.26,SE,144,3.0,9.0,55,0.00,,,0.00,,2013-03-08 21:52:00,
2013-03-08 16:01:00,37.0,22.0,30.26,SE,144,3.0,9.0,55,0.00,,,0.00,,2013-03-08 22:01:00,
2013-03-08 16:11:00,37.0,22.0,30.26,SE,144,3.0,9.0,55,0.00,,,0.00,,2013-03-08 22:11:00,
2013-03-08 16:22:00,38.0,23.0,30.25,SSE,147,1.0,4.0,55,0.00,,,0.00,,2013-03-08 22:22:00,
2013-03-08 16:32:00,38.0,23.0,30.25,SSE,147,1.0,4.0,55,0.00,,,0.00,,2013-03-08 22:32:00,
2013-03-08 16:42:00,38.0,23.0,30.25,SSE,147,1.0,4.0,55,0.00,,,0.00,,2013-03-08 22:42:00,
2013-03-08 16:53:00,38.0,24.0,30.24,SE,133,0.0,6.0,56,0.00,,,0.00,,2013-03-08 22:53:00,
2013-03-08 17:01:00,38.0,24.0,30.24,SE,133,0.0,6.0,56,0.00,,,0.00,,2013-03-08 23:01:00,
2013-03-08 17:12:00,38.0,24.0,30.24,SE,133,0.0,6.0,56,0.00,,,0.00,,2013-03-08 23:12:00,
2013-03-08 17:21:00,38.0,25.0,30.25,SE,131,0.0,4.0,58,0.00,,,0.00,,2013-03-08 23:21:00,
2013-03-08 17:32:00,38.0,25.0,30.25,SE,131,0.0,4.0,58,0.00,,,0.00,,2013-03-08 23:32:00,
2013-03-08 17:42:00,38.0,25.0,30.25,SE,131,0.0,4.0,58,0.00,,,0.00,,2013-03-08 23:42:00,
2013-03-08 17:53:00,38.0,25.0,30.24,ESE,110,1.0,4.0,59,0.00,,,0.00,,2013-03-08 23:53:00,
2013-03-08 18:02:00,38.0,25.0,30.24,ESE,110,1.0,4.0,59,0.00,,,0.00,,2013-03-09 00:02:00,
2013-03-08 18:11:00,38.0,25.0,30.24,ESE,110,1.0,4.0,59,0.00,,,0.00,,2013-03-09 00:11:00,
2013-03-08 18:22:00,37.0,24.0,30.24,ESE,118,0.0,9.0,60,0.00,,,0.00,,2013-03-09 00:22:00,
2013-03-08 18:32:00,37.0,24.0,30.24,ESE,118,0.0,9.0,60,0.00,,,0.00,,2013-03-09 00:32:00,
2013-03-08 18:42:00,37.0,24.0,30.24,ESE,118,0.0,9.0,60,0.00,,,0.00,,2013-03-09 00:42:00,
2013-03-08 18:52:00,36.0,25.0,30.23,ESE,119,0.0,2.0,63,0.00,,,0.00,,2013-03-09 00:52:00,
2013-03-08 19:01:00,36.0,25.0,30.23,ESE,119,0.0,2.0,63,0.00,,,0.00,,2013-03-09 01:01:00,
2013-03-08 19:12:00,36.0,25.0,30.22,ESE,120,0.0,2.0,64,0.00,,,0.00,,2013-03-09 01:12:00,
2013-03-08 19:21:00,36.0,25.0,30.22,ESE,120,0.0,2.0,64,0.00,,,0.00,,2013-03-09 01:21:00,
2013-03-08 19:32:00,36.0,25.0,30.22,ESE,120,0.0,2.0,64,0.00,,,0.00,,2013-03-09 01:32:00,
2013-03-08 19:42:00,36.0,25.0,30.22,ESE,120,0.0,2.0,64,0.00,,,0.00,,2013-03-09 01:42:00,
2013-03-08 19:52:00,36.0,25.0,30.21,ESE,119,0.0,1.0,65,0.00,,,0.00,,2013-03-09 01:52:00,
2013-03-08 20:01:00,36.0,25.0,30.21,ESE,119,0.0,1.0,65,0.00,,,0.00,,2013-03-09 02:01:00,
2013-03-08 20:11:00,36.0,25.0,30.21,ESE,119,0.0,1.0,65,0.00,,,0.00,,2013-03-09 02:11:00,
2013-03-08 20:21:00,35.0,25.0,30.19,ESE,118,0.0,1.0,67,0.00,,,0.00,,2013-03-09 02:21:00,
2013-03-08 20:31:00,35.0,25.0,30.19,ESE,118,0.0,1.0,67,0.00,,,0.00,,2013-03-09 02:31:00,
2013-03-08 20:41:00,35.0,26.0,30.18,ESE,113,0.0,1.0,68,0.00,,,0.00,,2013-03-09 02:41:00,
2013-03-08 20:51:00,35.0,26.0,30.18,ESE,113,0.0,1.0,68,0.00,,,0.00,,2013-03-09 02:51:00,
2013-03-08 21:01:00,35.0,26.0,30.18,ESE,113,0.0,1.0,68,0.00,,,0.00,,2013-03-09 03:01:00,
2013-03-08 21:11:00,35.0,26.0,30.18,ESE,113,0.0,1.0,68,0.00,,,0.00,,2013-03-09 03:11:00,
2013-03-08 21:21:00,34.0,25.0,30.18,ESE,114,0.0,1.0,69,0.00,,,0.00,,2013-03-09 03:21:00,
2013-03-08 21:31:00,34.0,25.0,30.18,ESE,114,0.0,1.0,69,0.00,,,0.00,,2013-03-09 03:31:00,
2013-03-08 21:42:00,34.0,25.0,30.18,ESE,114,0.0,1.0,69,0.00,,,0.00,,2013-03-09 03:42:00,
2013-03-08 21:52:00,34.0,25.0,30.17,ESE,113,0.0,1.0,69,0.00,,,0.00,,2013-03-09 03:52:00,
2013-03-08 22:01:00,34.0,25.0,30.17,ESE,113,0.0,1.0,69,0.00,,,0.00,,2013-03-09 04:01:00,
2013-03-08 22:11:00,34.0,25.0,30.17,ESE,113,0.0,1.0,69,0.00,,,0.00,,2013-03-09 04:11:00,
2013-03-08 22:22:00,34.0,25.0,30.16,ESE,112,0.0,3.0,70,0.00,,,0.00,,2013-03-09 04:22:00,
2013-03-08 22:32:00,34.0,25.0,30.16,ESE,112,0.0,3.0,70,0.00,,,0.00,,2013-03-09 04:32:00,
2013-03-08 22:42:00,34.0,25.0,30.16,ESE,112,0.0,3.0,70,0.00,,,0.00,,2013-03-09 04:42:00,
2013-03-08 22:52:00,35.0,26.0,30.15,ESE,122,1.0,6.0,68,0.00,,,0.00,,2013-03-09 04:52:00,
2013-03-08 23:02:00,35.0,26.0,30.15,ESE,122,1.0,6.0,68,0.00,,,0.00,,2013-03-09 05:02:00,
2013-03-08 23:12:00,35.0,26.0,30.15,ESE,122,1.0,6.0,68,0.00,,,0.00,,2013-03-09 05:12:00,
2013-03-08 23:22:00,35.0,25.0,30.14,SE,130,1.0,5.0,67,0.00,,,0.00,,2013-03-09 05:22:00,
2013-03-08 23:31:00,35.0,25.0,30.14,SE,130,1.0,5.0,67,0.00,,,0.00,,2013-03-09 05:31:00,
2013-03-08 23:43:00,35.0,25.0,30.14,SE,130,1.0,5.0,67,0.00,,,0.00,,2013-03-09 05:43:00,
2013-03-08 23:53:00,35.0,25.0,30.13,ESE,123,1.0,4.0,66,0.00,,,0.00,,2013-03-09 05:53:00,